This is the latest recevied weather packets stored in our database for station/object N8ESC. If no packets are shown the sender has not sent any weather packets the latest 10 day(s).
| Time | Temp. | Humidity | Pressure | Rain* | Wind** | Luminosity | Snow |
|---|---|---|---|---|---|---|---|
| 1777298263 | 10.56° C | 72% | 1013.5 hPa | 0 mm | - | 191 W/m² | - |
| 1777297959 | 10° C | 73% | 1013.6 hPa | 0 mm | - | 173 W/m² | - |
| 1777297655 | 10° C | 73% | 1013.8 hPa | 0 mm | - | 147 W/m² | - |
| 1777297353 | 10° C | 74% | 1013.7 hPa | 0 mm | - | 150 W/m² | - |
| 1777297049 | 10° C | 74% | 1013.6 hPa | 0 mm | - | 158 W/m² | - |
| 1777296746 | 9.44° C | 75% | 1013.6 hPa | 0 mm | - | 177 W/m² | - |
| 1777296442 | 9.44° C | 76% | 1013.7 hPa | 0 mm | - | 162 W/m² | - |
| 1777296138 | 9.44° C | 77% | 1013.8 hPa | 0 mm | - | 123 W/m² | - |
| 1777295835 | 8.89° C | 77% | 1013.7 hPa | 0 mm | - | 97 W/m² | - |
| 1777295532 | 8.89° C | 77% | 1013.6 hPa | 0 mm | - | 84 W/m² | - |
| 1777295230 | 8.89° C | 78% | 1013.8 hPa | 0 mm | - | 76 W/m² | - |
| 1777294928 | 8.89° C | 78% | 1013.9 hPa | 0 mm | - | 60 W/m² | - |
| 1777294628 | 8.89° C | 78% | 1014 hPa | 0 mm | - | 56 W/m² | - |
| 1777294324 | 8.89° C | 78% | 1014.1 hPa | 0 mm | - | 65 W/m² | - |
| 1777294021 | 8.89° C | 78% | 1014.2 hPa | 0 mm | - | 64 W/m² | - |
| 1777293717 | 8.89° C | 78% | 1014.2 hPa | 0 mm | - | 63 W/m² | - |
| 1777293413 | 8.89° C | 78% | 1014 hPa | 0 mm | - | 58 W/m² | - |
| 1777293109 | 8.89° C | 78% | 1014.2 hPa | 0 mm | - | 46 W/m² | - |
| 1777292807 | 8.89° C | 78% | 1014.4 hPa | 0 mm | - | 48 W/m² | - |
| 1777292504 | 8.89° C | 79% | 1014.4 hPa | 0 mm | - | 51 W/m² | - |
| 1777292201 | 8.89° C | 78% | 1014.4 hPa | 0 mm | - | 44 W/m² | - |
| 1777291896 | 8.89° C | 79% | 1014.8 hPa | 0 mm | - | 37 W/m² | - |
| 1777291593 | 8.89° C | 79% | 1015.2 hPa | 0 mm | - | 28 W/m² | - |
| 1777291290 | 8.89° C | 79% | 1015.2 hPa | 0 mm | - | 25 W/m² | - |
| 1777290987 | 8.89° C | 79% | 1014.9 hPa | 0 mm | - | 25 W/m² | - |
* Rain latest hour (hover to see other rain measurements)
** Current wind speed in m/s (hover to see current wind gust speed)